Time,TemperatureF,DewpointF,PressureIn,WindDirection,WindDirectionDegrees,WindSpeedMPH,WindSpeedGustMPH,Humidity,HourlyPrecipIn,Conditions,Clouds,dailyrainin,SoftwareType,DateUTC
2013-03-04 00:01:00,24.0,23.0,-100.00,East,100,9.0,20.0,96,0.00,,,0.00,,2013-03-04 06:01:00,
2013-03-04 00:11:00,24.0,23.0,-100.00,East,95,13.0,20.0,97,0.00,,,0.00,,2013-03-04 06:11:00,
2013-03-04 00:21:00,24.0,23.0,-100.00,SE,125,10.0,17.0,98,0.00,,,0.00,,2013-03-04 06:21:00,
2013-03-04 00:32:00,24.0,23.0,-100.00,ESE,105,12.0,22.0,98,0.00,,,0.00,,2013-03-04 06:32:00,
2013-03-04 00:42:00,24.0,23.0,-100.00,ESE,115,11.0,22.0,98,0.00,,,0.00,,2013-03-04 06:42:00,
2013-03-04 00:51:00,24.0,23.0,-100.00,ESE,105,13.0,18.0,98,0.00,,,0.00,,2013-03-04 06:51:00,
2013-03-04 01:01:00,24.0,23.0,-100.00,East,95,9.0,20.0,99,0.00,,,0.00,,2013-03-04 07:01:00,
2013-03-04 01:11:00,24.0,23.0,-100.00,East,90,11.0,23.0,99,0.01,,,0.00,,2013-03-04 07:11:00,
2013-03-04 01:21:00,24.0,23.0,-100.00,ESE,115,13.0,20.0,99,0.00,,,0.00,,2013-03-04 07:21:00,
2013-03-04 01:32:00,24.0,23.0,-100.00,ESE,110,12.0,21.0,99,0.00,,,0.00,,2013-03-04 07:32:00,
2013-03-04 01:41:00,24.0,23.0,-100.00,ESE,105,9.0,21.0,99,0.01,,,0.01,,2013-03-04 07:41:00,
2013-03-04 01:51:00,24.0,23.0,-100.00,ESE,105,11.0,17.0,99,0.00,,,0.01,,2013-03-04 07:51:00,
2013-03-04 02:02:00,24.0,23.0,-100.00,ESE,110,12.0,20.0,99,0.00,,,0.01,,2013-03-04 08:02:00,
2013-03-04 02:11:00,24.0,23.0,-100.00,ESE,105,11.0,19.0,99,0.00,,,0.01,,2013-03-04 08:11:00,
2013-03-04 02:21:00,24.0,23.0,-100.00,ESE,105,12.0,21.0,99,0.00,,,0.01,,2013-03-04 08:21:00,
2013-03-04 02:31:00,24.0,23.0,-100.00,East,100,14.0,21.0,99,0.00,,,0.01,,2013-03-04 08:31:00,
2013-03-04 02:41:00,24.0,23.0,-100.00,ESE,105,14.0,23.0,99,0.00,,,0.01,,2013-03-04 08:41:00,
2013-03-04 02:52:00,24.0,23.0,-100.00,ESE,105,13.0,24.0,99,0.00,,,0.01,,2013-03-04 08:52:00,
2013-03-04 04:32:00,24.0,23.0,-100.00,East,95,14.0,19.0,99,0.00,,,0.01,,2013-03-04 10:32:00,
2013-03-04 04:42:00,24.0,23.0,-100.00,East,95,14.0,21.0,99,0.00,,,0.01,,2013-03-04 10:42:00,
2013-03-04 04:52:00,24.0,23.0,-100.00,ESE,105,16.0,24.0,99,0.00,,,0.01,,2013-03-04 10:52:00,
2013-03-04 05:01:00,24.0,23.0,-100.00,ESE,105,10.0,21.0,99,0.00,,,0.01,,2013-03-04 11:01:00,
2013-03-04 05:11:00,24.0,23.0,-100.00,East,90,14.0,22.0,99,0.00,,,0.01,,2013-03-04 11:11:00,
2013-03-04 05:21:00,24.0,23.0,-100.00,East,90,16.0,22.0,99,0.00,,,0.01,,2013-03-04 11:21:00,
2013-03-04 05:32:00,24.0,23.0,-100.00,East,95,15.0,24.0,98,0.00,,,0.01,,2013-03-04 11:32:00,
2013-03-04 05:42:00,24.0,23.0,-100.00,East,100,15.0,22.0,98,0.00,,,0.01,,2013-03-04 11:42:00,
2013-03-04 05:52:00,24.0,23.0,-100.00,East,90,13.0,24.0,96,0.00,,,0.01,,2013-03-04 11:52:00,
2013-03-04 06:01:00,24.0,23.0,-100.00,ESE,105,13.0,24.0,95,0.00,,,0.01,,2013-03-04 12:01:00,
2013-03-04 06:11:00,25.0,23.0,-100.00,East,100,14.0,26.0,95,0.00,,,0.01,,2013-03-04 12:11:00,
2013-03-04 06:22:00,25.0,23.0,-100.00,East,95,13.0,20.0,95,0.00,,,0.01,,2013-03-04 12:22:00,
2013-03-04 06:32:00,25.0,23.0,-100.00,ESE,110,9.0,19.0,95,0.00,,,0.01,,2013-03-04 12:32:00,
2013-03-04 06:42:00,25.0,23.0,-100.00,East,95,11.0,22.0,95,0.00,,,0.01,,2013-03-04 12:42:00,
2013-03-04 06:52:00,25.0,23.0,-100.00,ESE,105,9.0,21.0,95,0.00,,,0.01,,2013-03-04 12:52:00,
2013-03-04 07:02:00,25.0,23.0,-100.00,East,100,11.0,20.0,95,0.00,,,0.01,,2013-03-04 13:02:00,
2013-03-04 07:11:00,25.0,23.0,-100.00,East,90,12.0,20.0,95,0.00,,,0.01,,2013-03-04 13:11:00,
2013-03-04 07:21:00,25.0,23.0,-100.00,ESE,105,12.0,24.0,95,0.00,,,0.01,,2013-03-04 13:21:00,
2013-03-04 07:32:00,25.0,23.0,-100.00,ESE,105,11.0,24.0,95,0.00,,,0.01,,2013-03-04 13:32:00,
2013-03-04 07:41:00,25.0,23.0,-100.00,East,100,12.0,22.0,95,0.00,,,0.01,,2013-03-04 13:41:00,
2013-03-04 07:51:00,25.0,23.0,-100.00,East,100,12.0,19.0,94,0.00,,,0.01,,2013-03-04 13:51:00,
2013-03-04 08:01:00,25.0,23.0,-100.00,ESE,110,11.0,17.0,95,0.00,,,0.01,,2013-03-04 14:01:00,
2013-03-04 08:11:00,25.0,23.0,-100.00,ESE,115,11.0,21.0,94,0.00,,,0.01,,2013-03-04 14:11:00,
2013-03-04 08:22:00,25.0,25.0,-100.00,East,100,9.0,16.0,95,0.00,,,0.01,,2013-03-04 14:22:00,
2013-03-04 08:32:00,25.0,25.0,-100.00,SE,130,12.0,21.0,94,0.00,,,0.01,,2013-03-04 14:32:00,
2013-03-04 08:42:00,25.0,25.0,-100.00,East,100,11.0,19.0,94,0.00,,,0.01,,2013-03-04 14:42:00,
2013-03-04 08:52:00,26.0,25.0,-100.00,East,100,11.0,21.0,94,0.00,,,0.01,,2013-03-04 14:52:00,
2013-03-04 09:01:00,26.0,25.0,-100.00,ESE,105,12.0,20.0,94,0.00,,,0.01,,2013-03-04 15:01:00,
2013-03-04 09:11:00,26.0,25.0,-100.00,ESE,115,11.0,20.0,94,0.00,,,0.01,,2013-03-04 15:11:00,
2013-03-04 09:21:00,26.0,25.0,-100.00,SE,125,15.0,23.0,94,0.00,,,0.01,,2013-03-04 15:21:00,
2013-03-04 09:32:00,26.0,25.0,-100.00,East,100,11.0,17.0,93,0.00,,,0.01,,2013-03-04 15:32:00,
2013-03-04 09:42:00,27.0,25.0,-100.00,ESE,110,9.0,23.0,92,0.00,,,0.01,,2013-03-04 15:42:00,
2013-03-04 09:52:00,26.0,25.0,-100.00,ESE,110,12.0,21.0,93,0.00,,,0.01,,2013-03-04 15:52:00,
2013-03-04 10:02:00,27.0,25.0,-100.00,SE,125,10.0,21.0,93,0.00,,,0.01,,2013-03-04 16:02:00,
2013-03-04 10:11:00,27.0,25.0,-100.00,ESE,105,11.0,21.0,93,0.00,,,0.01,,2013-03-04 16:11:00,
2013-03-04 10:21:00,27.0,25.0,-100.00,ESE,115,14.0,20.0,93,0.00,,,0.01,,2013-03-04 16:21:00,
2013-03-04 10:31:00,27.0,25.0,-100.00,ESE,110,16.0,24.0,93,0.00,,,0.01,,2013-03-04 16:31:00,
2013-03-04 10:42:00,27.0,25.0,-100.00,ESE,115,9.0,19.0,92,0.00,,,0.01,,2013-03-04 16:42:00,
2013-03-04 10:52:00,28.0,27.0,-100.00,ESE,110,12.0,21.0,92,0.00,,,0.01,,2013-03-04 16:52:00,
2013-03-04 11:02:00,28.0,25.0,-100.00,East,100,12.0,21.0,92,0.00,,,0.01,,2013-03-04 17:02:00,
2013-03-04 11:11:00,28.0,27.0,-100.00,ESE,110,13.0,24.0,92,0.00,,,0.01,,2013-03-04 17:11:00,
2013-03-04 11:22:00,28.0,27.0,-100.00,East,100,13.0,21.0,92,0.00,,,0.01,,2013-03-04 17:22:00,
2013-03-04 11:32:00,29.0,27.0,-100.00,SE,130,11.0,19.0,91,0.00,,,0.01,,2013-03-04 17:32:00,
2013-03-04 11:42:00,29.0,27.0,-100.00,ESE,110,11.0,17.0,90,0.00,,,0.01,,2013-03-04 17:42:00,
2013-03-04 11:52:00,29.0,27.0,-100.00,ESE,105,11.0,21.0,89,0.00,,,0.01,,2013-03-04 17:52:00,
2013-03-04 12:01:00,29.0,27.0,-100.00,ESE,110,10.0,23.0,90,0.00,,,0.01,,2013-03-04 18:01:00,
2013-03-04 12:11:00,29.0,27.0,-100.00,ESE,110,12.0,22.0,90,0.00,,,0.01,,2013-03-04 18:11:00,
2013-03-04 12:21:00,29.0,27.0,-100.00,SE,125,12.0,23.0,90,0.00,,,0.01,,2013-03-04 18:21:00,
2013-03-04 12:32:00,29.0,27.0,-100.00,ESE,115,9.0,19.0,90,0.00,,,0.01,,2013-03-04 18:32:00,
2013-03-04 12:42:00,29.0,27.0,-100.00,ESE,120,13.0,18.0,90,0.00,,,0.01,,2013-03-04 18:42:00,
2013-03-04 12:52:00,29.0,27.0,-100.00,SE,135,13.0,22.0,90,0.00,,,0.01,,2013-03-04 18:52:00,
2013-03-04 13:01:00,29.0,27.0,-100.00,ESE,110,13.0,19.0,89,0.00,,,0.01,,2013-03-04 19:01:00,
2013-03-04 13:11:00,29.0,27.0,-100.00,SE,125,10.0,19.0,90,0.00,,,0.01,,2013-03-04 19:11:00,
2013-03-04 13:21:00,29.0,27.0,-100.00,SE,130,11.0,18.0,90,0.00,,,0.01,,2013-03-04 19:21:00,
2013-03-04 13:32:00,30.0,27.0,-100.00,SE,125,7.0,18.0,90,0.00,,,0.01,,2013-03-04 19:32:00,
2013-03-04 13:42:00,30.0,27.0,-100.00,SE,125,11.0,20.0,89,0.00,,,0.01,,2013-03-04 19:42:00,
2013-03-04 13:51:00,30.0,27.0,-100.00,ESE,105,9.0,17.0,89,0.00,,,0.01,,2013-03-04 19:51:00,
2013-03-04 14:01:00,30.0,27.0,-100.00,SE,135,10.0,21.0,89,0.00,,,0.01,,2013-03-04 20:01:00,
2013-03-04 14:11:00,30.0,27.0,-100.00,ESE,115,11.0,18.0,88,0.00,,,0.01,,2013-03-04 20:11:00,
2013-03-04 14:22:00,30.0,27.0,-100.00,SE,145,9.0,16.0,90,0.00,,,0.01,,2013-03-04 20:22:00,
2013-03-04 14:32:00,29.0,27.0,-100.00,SE,135,12.0,17.0,89,0.00,,,0.01,,2013-03-04 20:32:00,
2013-03-04 14:42:00,30.0,27.0,-100.00,ESE,110,9.0,15.0,89,0.00,,,0.01,,2013-03-04 20:42:00,
2013-03-04 14:52:00,30.0,27.0,-100.00,ESE,120,10.0,16.0,89,0.00,,,0.01,,2013-03-04 20:52:00,
2013-03-04 15:02:00,30.0,27.0,-100.00,East,90,7.0,13.0,89,0.00,,,0.01,,2013-03-04 21:02:00,
2013-03-04 15:11:00,29.0,27.0,-100.00,SE,130,11.0,17.0,89,0.00,,,0.01,,2013-03-04 21:11:00,
2013-03-04 15:21:00,30.0,27.0,-100.00,ESE,105,6.0,14.0,89,0.00,,,0.01,,2013-03-04 21:21:00,
2013-03-04 15:32:00,30.0,27.0,-100.00,East,90,6.0,16.0,89,0.00,,,0.01,,2013-03-04 21:32:00,
2013-03-04 15:42:00,29.0,27.0,-100.00,East,100,11.0,19.0,89,0.00,,,0.01,,2013-03-04 21:42:00,
2013-03-04 15:52:00,29.0,27.0,-100.00,ESE,105,9.0,16.0,89,0.00,,,0.01,,2013-03-04 21:52:00,
2013-03-04 16:01:00,30.0,27.0,-100.00,East,85,8.0,12.0,90,0.00,,,0.01,,2013-03-04 22:01:00,
2013-03-04 16:12:00,29.0,27.0,-100.00,SE,125,6.0,16.0,90,0.00,,,0.01,,2013-03-04 22:12:00,
2013-03-04 16:22:00,29.0,27.0,-100.00,East,100,7.0,12.0,91,0.00,,,0.01,,2013-03-04 22:22:00,
2013-03-04 16:32:00,29.0,27.0,-100.00,ESE,110,10.0,16.0,90,0.00,,,0.01,,2013-03-04 22:32:00,
2013-03-04 16:42:00,29.0,27.0,-100.00,East,90,7.0,12.0,91,0.00,,,0.01,,2013-03-04 22:42:00,
2013-03-04 16:52:00,29.0,27.0,-100.00,East,100,11.0,18.0,91,0.00,,,0.01,,2013-03-04 22:52:00,
2013-03-04 17:01:00,29.0,27.0,-100.00,ESE,110,10.0,15.0,92,0.00,,,0.01,,2013-03-04 23:01:00,
2013-03-04 17:11:00,29.0,27.0,-100.00,East,95,6.0,15.0,92,0.00,,,0.01,,2013-03-04 23:11:00,
2013-03-04 17:21:00,29.0,27.0,-100.00,East,100,10.0,14.0,93,0.00,,,0.01,,2013-03-04 23:21:00,
2013-03-04 17:32:00,29.0,27.0,-100.00,ESE,105,7.0,11.0,92,0.00,,,0.01,,2013-03-04 23:32:00,
2013-03-04 17:42:00,29.0,27.0,-100.00,ESE,105,8.0,12.0,95,0.00,,,0.01,,2013-03-04 23:42:00,
2013-03-04 17:52:00,29.0,27.0,-100.00,East,95,7.0,12.0,93,0.00,,,0.01,,2013-03-04 23:52:00,
2013-03-04 18:01:00,28.0,27.0,-100.00,ESE,110,7.0,12.0,93,0.00,,,0.01,,2013-03-05 00:01:00,
2013-03-04 18:11:00,28.0,27.0,-100.00,East,100,8.0,15.0,94,0.00,,,0.01,,2013-03-05 00:11:00,
2013-03-04 18:21:00,28.0,27.0,-100.00,ESE,105,8.0,14.0,97,0.00,,,0.01,,2013-03-05 00:21:00,
2013-03-04 19:01:00,28.0,27.0,-100.00,ESE,110,7.0,11.0,98,0.00,,,0.01,,2013-03-05 01:01:00,
2013-03-04 19:12:00,28.0,27.0,-100.00,ESE,105,7.0,11.0,97,0.00,,,0.01,,2013-03-05 01:12:00,
2013-03-04 19:21:00,28.0,27.0,-100.00,ESE,120,7.0,10.0,96,0.00,,,0.01,,2013-03-05 01:21:00,
2013-03-04 19:32:00,28.0,27.0,-100.00,SE,145,5.0,12.0,94,0.00,,,0.01,,2013-03-05 01:32:00,
2013-03-04 19:41:00,29.0,27.0,-100.00,SE,140,6.0,10.0,93,0.00,,,0.01,,2013-03-05 01:41:00,
2013-03-04 19:51:00,28.0,27.0,-100.00,ESE,115,4.0,10.0,94,0.00,,,0.01,,2013-03-05 01:51:00,
2013-03-04 20:01:00,28.0,27.0,-100.00,ESE,115,3.0,5.0,95,0.00,,,0.01,,2013-03-05 02:01:00,
2013-03-04 20:11:00,28.0,27.0,-100.00,SE,125,3.0,9.0,97,0.00,,,0.01,,2013-03-05 02:11:00,
2013-03-04 20:21:00,28.0,27.0,-100.00,SSE,155,1.0,6.0,97,0.00,,,0.01,,2013-03-05 02:21:00,
2013-03-04 20:32:00,28.0,27.0,-100.00,SE,130,2.0,6.0,98,0.00,,,0.01,,2013-03-05 02:32:00,
2013-03-04 20:52:00,28.0,27.0,-100.00,SSE,160,2.0,6.0,99,0.00,,,0.01,,2013-03-05 02:52:00,
2013-03-04 21:02:00,27.0,27.0,-100.00,SSE,165,4.0,6.0,99,0.00,,,0.01,,2013-03-05 03:02:00,
2013-03-04 21:12:00,27.0,27.0,-100.00,SSE,150,2.0,6.0,99,0.00,,,0.01,,2013-03-05 03:12:00,
2013-03-04 21:22:00,27.0,27.0,-100.00,SE,130,4.0,5.0,99,0.00,,,0.01,,2013-03-05 03:22:00,
2013-03-04 21:32:00,28.0,27.0,-100.00,SE,125,2.0,5.0,99,0.00,,,0.01,,2013-03-05 03:32:00,
2013-03-04 21:42:00,27.0,27.0,-100.00,SE,135,3.0,6.0,99,0.00,,,0.01,,2013-03-05 03:42:00,
2013-03-04 21:52:00,28.0,27.0,-100.00,SSE,165,3.0,7.0,99,0.00,,,0.01,,2013-03-05 03:52:00,
2013-03-04 22:01:00,28.0,27.0,-100.00,SSE,150,4.0,6.0,99,0.00,,,0.01,,2013-03-05 04:01:00,
2013-03-04 22:11:00,27.0,27.0,-100.00,ESE,120,4.0,7.0,99,0.00,,,0.01,,2013-03-05 04:11:00,
2013-03-04 22:22:00,27.0,27.0,-100.00,ESE,120,3.0,6.0,99,0.01,,,0.02,,2013-03-05 04:22:00,
2013-03-04 22:32:00,27.0,27.0,-100.00,ESE,115,2.0,4.0,99,0.01,,,0.02,,2013-03-05 04:32:00,
2013-03-04 22:42:00,27.0,27.0,-100.00,East,95,4.0,7.0,99,0.00,,,0.02,,2013-03-05 04:42:00,
2013-03-04 22:51:00,27.0,27.0,-100.00,ESE,120,5.0,7.0,99,0.00,,,0.02,,2013-03-05 04:51:00,
2013-03-04 23:01:00,27.0,27.0,-100.00,ESE,105,6.0,7.0,99,0.00,,,0.02,,2013-03-05 05:01:00,
2013-03-04 23:11:00,27.0,27.0,-100.00,ESE,120,4.0,7.0,99,0.00,,,0.02,,2013-03-05 05:11:00,
2013-03-04 23:22:00,27.0,27.0,-100.00,ESE,110,5.0,9.0,99,0.00,,,0.02,,2013-03-05 05:22:00,
2013-03-04 23:32:00,27.0,27.0,-100.00,ESE,115,4.0,9.0,99,0.00,,,0.02,,2013-03-05 05:32:00,
2013-03-04 23:42:00,27.0,27.0,-100.00,East,100,4.0,7.0,99,0.00,,,0.02,,2013-03-05 05:42:00,
2013-03-04 23:52:00,27.0,27.0,-100.00,East,90,4.0,6.0,99,0.00,,,0.02,,2013-03-05 05:52:00,